Mount Gambier Airport
YMTG : now visible

Airfield :











YOU CAN JOIN US ON...

 
LOGIN :

Register | Disclaimer

   EN    FR    IT 

 









Legend :    VFR   Marginal VFR   IFR   Intensive IFR   Very Intensive IFR
Visi :
Ceiling :
>= 8 km
>= 3000ft
5 to 8 km
1000 to 3000 ft
1500m to 5 km
500 to 1000 ft
800 to 1500m
200 to 500 ft
< 800m
< 200 ft
Symbols :   Thunderstorms  Fog  Heavy snow  Heavy precipitations  Wind > 20 kt






- Airport Elevation : 212 ft
- IATA code : MGB


YMTG - Mount Gambier

CURRENT METAR :
  • 191300Z AUTO 30012KT 9999 // SCT029 SCT038 BKN054 09/07 Q1012

EXPIRED METARs :
  • 191200Z AUTO 32010KT 9999 // SCT045 OVC060 10/07 Q1012
  • 191100Z AUTO 32008KT 9999 // NCD 09/07 Q1013

TAF N/A
YMMM FIR / Oceania



MET'MAP, your aeronautical weather chart ! - Copyright ORBIFLY December 2007 - Disclaimer

ORBIFLY MET'MAP TEAM :

Programming & Development : Alexandra Zaïnal
Concept & original design : Baudouin d'Aumeries
Assistance for programming : Marc-Olivier Méhu
Technical & hardware support : Manuel Goepfert

Contact : metmap@orbifly.com




SOURCES & CREDITS :

   NOAA       Earth
Advisory